Location: Filipowice
(50.1888°N, 20.6031°E)
Time: 05:26:37
(UTC+00:00)

Daily predictions for brighter satellites

Satellite Brightness Start Highest point End
(mag) Time Altitude Azimuth Time Altitude Azimuth Time Altitude Azimuth
ACS3 Solar Sail 4.3 00:38:48 10° NE 00:39:56 14° NE 00:39:56 14° NE
CENTAUR R/B 4.0 01:52:52 37° N 01:54:27 40° NNE 02:02:47 10° E
Cosmos 2237 Rocket 3.8 01:55:42 31° E 01:55:42 31° E 01:59:56 10° NE
Cosmos 2369 Rocket 4.3 01:59:43 19° NNE 02:01:08 21° NE 02:05:20 10° E
Cosmos 2360 Rocket 4.4 02:10:53 16° N 02:10:53 16° N 02:12:09 10° NNE
ADEOS Rocket 3.6 02:03:18 10° NNE 02:08:51 63° NNE 02:08:51 63° NNE
Cosmos 2322 Rocket 4.4 02:15:59 15° N 02:15:59 15° N 02:17:17 10° NNE
SJ 16-02 3.7 02:15:02 20° E 02:15:02 20° E 02:17:04 10° ESE
Cosmos 2333 Rocket 4.4 02:17:29 15° N 02:17:29 15° N 02:18:51 10° NNE
USA 234 3.3 02:15:56 10° ESE 02:22:27 70° NNE 02:22:27 70° NNE
SL-16 R/B 4.5 02:26:41 13° N 02:26:41 13° N 02:27:40 10° N
ACS3 Solar Sail 2.8 02:20:45 10° N 02:24:02 35° N 02:24:02 35° N
Gbstr 26 Del rocket 4.0 02:39:58 54° ENE 02:39:58 54° ENE 02:44:30 10° ENE
Meteor 1-24 Rocket 4.0 02:41:06 61° NE 02:41:06 61° NE 02:45:39 10° NNE
Cosmos 1656 Rocket 4.4 02:38:46 40° NNE 02:40:13 49° NE 02:45:43 10° SE
Cosmos 2219 Rocket 4.0 02:44:42 20° N 02:44:42 20° N 02:46:59 10° NNE
Cosmos 1725 Rocket 3.9 02:38:48 10° N 02:45:10 85° E 02:51:29 10° S
Lacrosse 4 Rocket 4.2 02:46:40 10° NNE 02:46:59 10° NNE 02:47:18 10° NNE
Cosmos 2233 Rocket 4.3 02:41:12 10° N 02:47:29 64° ENE 02:53:40 10° SSE
Lacrosse 5 rocket 3.7 02:49:50 16° ENE 02:49:50 16° ENE 02:50:48 10° ENE
NOSS 3-1 (C) 3.9 02:50:25 42° N 02:50:25 42° N 02:55:07 10° NE
Meteor 2-21 Rocket 4.3 02:52:23 57° S 02:53:46 89° E 02:59:52 10° N
Cosmos 2251 Rocket 3.6 02:56:26 71° SSE 02:56:26 71° SSE 03:01:10 10° SSE
SL-16 R/B 4.0 02:53:28 10° SSE 02:58:19 30° ESE 03:03:11 10° NE
Cosmos 1420 Rocket 4.4 02:57:42 40° S 02:59:27 63° ESE 03:04:43 10° NNE
H-2A R/B 4.1 02:56:22 10° N 02:57:08 14° N 02:57:08 14° N
PAYLOAD A 4.1 02:57:52 10° NNE 03:03:17 78° ESE 03:05:40 33° S
NOSS 0 Rocket 3.8 03:04:17 66° WNW 03:04:21 66° NW 03:10:31 10° NNE
Helios 1A Rocket 4.5 03:01:50 10° ESE 03:04:41 26° ENE 03:05:20 24° NE
SL-08 R/B 4.3 02:59:56 10° N 03:06:06 84° W 03:12:19 10° S
Cosmos 1802 Rocket 3.9 03:00:19 10° NNW 03:06:35 64° W 03:12:43 10° S
SL-08 RB Rocket 3.9 03:02:23 10° NNE 03:06:14 63° NNE 03:06:14 63° NNE
Cosmos 1812 4.4 03:14:35 23° E 03:14:35 23° E 03:16:21 10° SE
COSMOS 2428 3.5 03:21:07 34° NNW 03:21:07 34° NNW 03:25:27 10° NNE
Meteor 2-5 Rocket 3.7 03:19:35 54° WSW 03:20:29 61° WNW 03:26:14 10° N
CZ-2C R/B 2.4 03:16:18 10° N 03:21:19 65° WNW 03:21:33 64° W
Cosmos 1980 3.7 03:22:37 57° W 03:23:15 61° WNW 03:28:54 10° NNE
Cosmos 2123 Rocket 4.0 03:24:38 41° SW 03:26:27 55° WNW 03:32:31 10° N
Cosmos 1939 Rocket 2.8 03:22:48 10° NNE 03:26:13 68° NNE 03:26:13 68° NNE
USA 267 3.3 03:20:59 10° ENE 03:27:33 76° SE 03:31:27 26° SW
Cosmos 2016 Rocket 4.1 03:23:57 10° NNW 03:30:06 52° W 03:36:11 10° SSW
Cosmos 2278 Rocket 4.3 03:37:43 10° SSW 03:37:43 10° SSW 03:37:49 10° SSW
Cosmos 1190 Rocket 4.1 03:34:26 50° W 03:35:00 52° WSW 03:40:02 10° S
Cosmos 676 Rocket 3.8 03:34:41 29° NNW 03:37:24 78° WSW 03:42:35 10° SSE
NOSS 3-1 (A) 3.3 03:37:27 45° WNW 03:38:21 50° NW 03:44:18 10° NE
Cosmos 2237 Rocket 2.3 03:37:34 43° W 03:38:49 51° NW 03:44:21 10° NNE
ARGOS 3.4 03:34:46 10° N 03:39:52 43° WNW 03:40:21 42° W
Cosmos 2297 3.9 03:36:01 17° NNW 03:40:29 69° ENE 03:46:05 10° SE
ATLAS 3B R/B 3.7 03:37:36 10° SSW 03:44:54 55° ESE 03:52:32 10° NE
Okean 2 Rocket 4.4 03:41:36 10° N 03:45:43 39° ENE 03:49:49 10° SE
Cosmos 2369 Rocket 2.3 03:41:31 16° NNW 03:46:05 77° ENE 03:51:48 10° SSE
CENTAUR R/B 3.3 03:40:00 20° NW 03:46:12 84° NE 03:55:37 10° SE
Aureole 3 4.0 03:40:46 10° S 03:46:38 90° W 03:51:29 10° N
Cosmos 2056 Rocket 3.5 03:42:50 10° SSW 03:48:15 86° WNW 03:53:40 10° NNE
Cosmos 1954 Rocket 4.1 03:47:44 36° WNW 03:49:18 48° WSW 03:54:14 10° S
SJ 16-02 1.5 03:51:39 44° W 03:51:54 45° WSW 03:55:58 10° S
Orbus 7S? 3.2 03:51:03 36° WSW 03:52:45 79° NNW 03:55:45 10° NE
Cosmos 2360 Rocket 4.3 03:52:38 11° NNW 03:53:08 11° NNW 03:54:48 10° N
SKYMED 2 3.4 03:49:14 10° S 03:53:34 76° WSW 03:57:56 10° NNW
ADEOS Rocket 4.2 03:49:39 10° N 03:55:02 26° NW 03:55:46 26° WNW
FengYun 1-2 T 4.1 03:51:19 10° NNE 03:56:53 72° WNW 04:02:28 10° SSW
IRS-1D 3.3 03:52:44 10° NNE 03:57:43 87° WNW 04:02:38 10° SSW
Cosmos 2322 Rocket 4.3 03:57:46 10° NNW 03:58:41 10° NNW 03:59:43 10° N
COSMO-SKYMED 1 2.3 03:55:36 10° SSE 03:59:44 89° W 04:03:53 10° NNW
Cosmos 2333 Rocket 4.4 04:00:06 10° NNW 04:00:51 10° NNW 04:01:36 10° N
USA 234 3.5 03:59:15 10° SE 04:05:39 53° SW 04:09:48 22° WNW
Cosmos 1371 Rocket 4.0 04:02:27 10° SW 04:07:43 65° WNW 04:13:03 10° NNE
Cosmos 1025 Rocket 4.3 04:04:15 10° SSE 04:08:23 44° E 04:12:33 10° NNE
ACS3 Solar Sail 3.2 04:05:01 10° NNW 04:08:08 18° NW 04:08:08 18° NW
Cosmos 968 Rocket 3.4 04:05:06 10° NNW 04:10:23 81° WSW 04:15:37 10° SSE
Cosmos 1741 Rocket 4.1 04:07:42 10° NNW 04:13:03 82° ENE 04:18:22 10° SSE
Cosmos 1674 Rocket 3.9 04:08:46 10° S 04:13:10 68° E 04:17:33 10° NNE
Cosmos 371 Rocket 3.9 04:11:29 25° WNW 04:13:32 35° WSW 04:17:54 10° SSW
Meteor 1-21 Rocket 4.2 04:08:44 10° SSW 04:14:28 84° WNW 04:20:08 10° NNE
USA 306 2.3 04:15:46 34° W 04:17:03 70° NNW 04:20:55 10° ENE
CZ-4 R/B 3.8 04:13:31 10° N 04:18:20 64° WNW 04:23:02 10° SSW
CZ-3 R/B 4.1 04:12:28 10° SW 04:19:02 16° SSW 04:23:05 10° SSE
Cosmos 2221 Rocket 4.3 04:18:32 10° S 04:22:58 57° E 04:27:25 10° NNE
Cosmos 1400 Rocket 2.5 04:19:21 10° NNW 04:23:02 62° W 04:26:39 10° S
NOAA 12 4.1 04:17:56 10° N 04:23:14 67° WNW 04:28:30 10° SSW
Cosmos 1656 Rocket 4.3 04:20:09 18° NW 04:23:35 34° WSW 04:28:37 10° SSW
Cosmos 1110 Rocket 4.2 04:18:52 10° SSW 04:24:09 77° ESE 04:29:28 10° NNE
Cosmos 1484 Rocket 2.9 04:21:38 10° NNE 04:25:11 68° ESE 04:28:41 10° S
Lacrosse 5 rocket 1.0 04:23:30 24° NW 04:25:22 66° NNE 04:28:39 10° ESE
Gbstr 26 Del rocket 3.7 04:22:01 21° WNW 04:25:33 82° NNE 04:31:55 10° E
Lacrosse 4 Rocket 2.6 04:22:18 10° NNW 04:26:01 36° NE 04:29:39 10° ESE
Aureole 3 Rocket 4.1 04:22:51 10° NNW 04:27:42 48° W 04:34:19 10° SSW
Cosmos 2219 Rocket 4.2 04:26:42 10° NNW 04:28:06 11° NNW 04:29:30 10° N
Cosmos 2151 Rocket 3.5 04:23:43 10° NNW 04:28:12 66° W 04:32:36 10° S
Cosmos 1455 Rocket 4.3 04:24:36 10° N 04:28:46 43° ENE 04:32:55 10° SSE
Cosmos 1869 4.4 04:31:06 19° W 04:31:06 19° W 04:33:15 10° SW
In-Cosmos 22 Rocket 4.4 04:26:10 10° SSW 04:31:53 55° WNW 04:37:35 10° N
SWARM A 4.4 04:30:36 10° SSW 04:33:49 48° W 04:37:04 10° N
Sich 1 Rocket 3.6 04:30:49 10° NNW 04:35:23 84° W 04:39:52 10° S
Helios 1A Rocket 3.5 04:34:32 10° SSW 04:37:20 24° W 04:38:59 17° NW
Cosmos 1378 Rocket 3.7 04:36:48 10° SSW 04:40:56 47° WNW 04:45:06 10° N
Cosmos 1624 Rocket 4.5 04:36:58 10° WSW 04:41:44 37° NW 04:46:32 10° NNE
SL-16 R/B 2.3 04:36:33 10° SW 04:42:07 55° NW 04:47:44 10° NNE
Cosmos 332 Rocket 3.8 04:37:40 10° NNW 04:42:25 62° WSW 04:47:06 10° S
NOSS 2-2 (C) 3.6 04:39:27 15° NW 04:42:39 69° SW 04:47:50 10° SSE
Cosmos 2242 Rocket 4.3 04:39:15 10° SW 04:43:10 31° WNW 04:47:09 10° N
Cosmos 1464 Rocket 4.0 04:38:35 10° NNW 04:44:39 61° W 04:50:39 10° S
Okean 1 Rocket 3.0 04:41:46 10° NNW 04:46:05 66° W 04:50:20 10° S
Cosmos 1812 3.8 04:46:27 15° W 04:46:27 15° W 04:47:53 10° SW
NOSS 3-2 (C) 4.4 04:47:02 10° NW 04:53:57 62° NE 05:02:24 10° ESE
Cosmos 2034 Rocket 4.0 04:49:49 10° NNW 04:56:10 74° W 05:02:30 10° S
Cosmos 1452 Rocket 3.5 04:52:05 10° SSW 04:57:18 80° WNW 05:02:35 10° NNE
Meteor 2-1 Rocket 4.3 04:51:26 10° NNW 04:57:19 67° W 05:03:02 10° S
CZ-2C R/B 4.2 04:56:17 10° NNW 04:58:28 13° NW 05:00:40 10° WNW
ARIANE 5 R/B 3.6 04:53:44 10° NNE 04:58:41 49° E 05:03:39 10° S
Cosmos 1850 Rocket 4.5 04:55:58 10° NW 05:00:46 40° WSW 05:05:34 10° S
IGS 5A 3.3 05:00:54 10° N 05:04:54 65° WNW 05:08:51 10° SSW
NOSS 2-2 (D) 3.5 05:01:11 10° NW 05:04:56 78° SW 05:10:03 10° SE
Cosmos 2084 3.4 05:04:16 10° NW 05:08:19 66° SW 05:12:17 10° SSE
Cosmos 1980 Rocket 4.4 05:05:34 10° N 05:08:58 16° NNE 05:12:21 10° ENE
CORIOLIS 4.4 05:03:43 10° NNE 05:09:05 77° ESE 05:14:26 10° S
USA 267 3.5 05:04:05 10° ENE 05:10:28 58° NNW 05:16:50 10° W
Cosmos 1331 Rocket 4.2 05:06:35 10° SW 05:11:42 51° WNW 05:16:48 10° NNE
Meteor 1-27 4.4 05:07:11 10° NNW 05:13:03 86° E 05:18:47 10° SSE
USA 229 DEB 3.6 05:08:08 10° WSW 05:14:07 62° NW 05:20:58 10° NE
Cosmos 1356 Rocket 3.8 05:10:15 10° N 05:14:19 66° ENE 05:18:23 10° SSE
USA 229 3.6 05:08:20 10° WSW 05:14:19 62° NW 05:21:10 10° NE
CZ-2D R/B 2.9 05:11:27 10° NNE 05:14:38 79° E 05:17:48 10° S
NOSS 3-2 (A) 4.2 05:07:36 10° NW 05:14:48 69° SW 05:23:31 10° SSE
Cosmos 1441 Rocket 2.8 05:12:25 10° SSW 05:15:45 79° WNW 05:19:07 10° N
SMAP 3.1 05:17:05 10° NNE 05:21:46 81° WNW 05:26:25 10° SSW
CBERS-1 4.2 05:17:13 10° N 05:22:12 54° WNW 05:27:10 10° SW
